Location: Berlise
(49.6641°N, 4.1077°E)
Time: 19:58:11
(UTC+00:00)

Cosmos 773 Rocket - Pass Details

Date: 27 January 2021
Orbit: 746 x 776 km, 74.1° (Epoch: 27 February)

Event Time Altitude Azimuth Distance (km) Brightness Sun altitude
Rises 06:42:11 0° 203° (SSW) 3,226 7.2 -6.8°
Reaches altitude 10° 06:44:33 10° 204° (SSW) 2,299 6.5 -6.4°
Maximum altitude 06:49:47 85° 294° (WNW) 771 4.0 -5.6°
Drops below altitude 10° 06:55:00 10° 23° (NNE) 2,296 6.5 -4.9°
Sets 06:57:23 0° 24° (NNE) 3,221 7.2 -4.5°
